Погода в Петровом Вале

Россия / Волгоградская область     50°08′16″N   45°12′32″E
темп.,
°C
ветер,
м/с
пор.,
м/с
влажн.,
%
обл.,
%
осадки,
мм/ч
давл.,
гПа
погр.,
м
15 апреля, чт
чт1500:00+12всв4126040 0.0 1017234
03:00+10в47642 0.0 1017103
06:00+10в23679 0.0 101637
09:00+16в454428 0.0 1016343
12:00+19в463655 0.0 1015835
15:00+22вюв672889 0.0 10141709
18:00+18в3642100 0.0 1014123
21:00+15в3649100 0.0 101492
16 апреля, пт
пт1600:00+13всв2252100 0.0 101423
03:00+12ссв225199 0.0 101410
06:00+12с225361 0.0 101522
09:00+17ссв234036 0.0 1015436
12:00+20с222863 0.0 10151517
15:00+21ссв222733 0.0 10152525
18:00+18св354213 0.0 1015141
21:00+15ссв22495 0.0 101620
17 апреля, сб
сб1700:00+12в226574 0.0 101711
03:00+11ююв1171100 0.0 101712
06:00+11ссз227498 0.0 101752
09:00+15в45615 0.0 1017449
12:00+18ююв4550100 0.2 10171305
15:00+12з8978100 2.8 1018684
18:00+9з6984100 1.4 1019699
21:00+8зсз5108751 3.0 1019594
18 апреля, вс
вс1800:00+6зсз39910 0.0 1020339
03:00+6сз24895 0.0 1019107
06:00+6зсз24895 0.0 1019167
09:00+10з127061 0.0 1019851
12:00+11с326487 0.3 1020921
15:00+13ссв5459100 0.3 10201257
18:00+10св5869100 0.0 1022744
21:00+8ссз367623 0.0 1023102
19 апреля, пн
пн1900:00+7ссв512660 0.0 1024284
03:00+6св613740 0.0 1026325
06:00+5св711820 0.0 1028480
09:00+7всв89522 0.0 1029834
12:00+9всв78375 0.0 10301291
15:00+10всв78365 0.0 10291398
18:00+9в69505 0.0 10301335
21:00+7в61159100 0.0 1030412